FW1564 Weather Reports


Display with metric or nautical units.
time (UTC)temp
F
wind
direction
speed
MPH
gust
MPH
rain 1hr
in
rain 24hr
in
rain mn
in
humidity
%
barometer
mb
20210623233725 58 335 7.0 10.0 0.00 0.00 0.00 77 1023.4
20210623232726 58 353 5.0 10.0 0.00 0.00 0.00 77 1023.5
20210623231702 58 339 5.0 13.0 0.00 0.00 0.00 77 1023.6
20210623230705 58 329 9.0 10.0 0.00 0.00 0.00 76 1023.6
20210623225657 58 338 5.0 10.0 0.00 0.00 0.00 76 1023.8
20210623224638 58 1 7.0 13.0 0.00 0.00 0.00 76 1023.8
20210623223626 58 321 6.0 8.0 0.00 0.00 0.00 76 1023.8
20210623222613 58 331 6.0 10.0 0.00 0.00 0.00 78 1023.9
20210623221608 58 334 7.0 10.0 0.00 0.00 0.00 78 1023.9
20210623220613 58 340 4.0 8.0 0.00 0.00 0.00 79 1023.9
20210623215603 59 315 5.0 10.0 0.00 0.00 0.00 79 1023.9
20210623214547 59 340 4.0 13.0 0.00 0.00 0.00 78 1024.0
20210623213536 59 320 6.0 10.0 0.00 0.00 0.00 77 1023.9
20210623212527 59 352 4.0 8.0 0.00 0.00 0.00 78 1024.1
20210623211520 60 310 3.0 8.0 0.00 0.00 0.00 78 1024.0
20210623210506 60 309 5.0 8.0 0.00 0.00 0.00 78 1023.8
20210623205458 61 335 2.0 5.0 0.00 0.00 0.00 79 1023.7
20210623204457 61 37 0.0 2.0 0.00 0.00 0.00 79 1023.7
20210623203449 62 211 0.0 5.0 0.00 0.00 0.00 79 1023.5
20210623202441 62 142 3.0 5.0 0.00 0.00 0.00 78 1023.5
20210623201443 62 137 0.0 5.0 0.00 0.00 0.00 78 1023.5
20210623200430 62 223 0.0 8.0 0.00 0.00 0.00 77 1023.4
20210623195422 62 166 2.0 8.0 0.00 0.00 0.00 76 1023.5
20210623194414 63 185 2.0 10.0 0.00 0.00 0.00 75 1023.4
20210623193401 63 198 6.0 13.0 0.00 0.00 0.00 73 1023.2
20210623192354 62 213 2.0 10.0 0.00 0.00 0.00 73 1023.1
20210623191353 62 205 2.0 8.0 0.00 0.00 0.00 74 1023.1
20210623190343 63 187 3.0 10.0 0.00 0.00 0.00 75 1023.2
20210623185332 63 202 6.0 15.0 0.00 0.00 0.00 76 1023.3
20210623184335 64 190 6.0 10.0 0.00 0.00 0.00 74 1023.2
20210623183313 64 175 2.0 10.0 0.00 0.00 0.00 73 1022.9
20210623182305 64 191 5.0 10.0 0.00 0.00 0.00 71 1023.0
20210623181256 65 185 2.0 17.0 0.00 0.00 0.00 70 1023.0
20210623180254 65 224 4.0 10.0 0.00 0.00 0.00 69 1022.8
20210623175244 65 160 5.0 13.0 0.00 0.00 0.00 69 1023.1
20210623174236 66 222 5.0 15.0 0.00 0.00 0.00 68 1022.9
20210623173239 67 193 9.0 15.0 0.00 0.00 0.00 68 1022.8
20210623172228 69 340 10.0 10.0 0.00 0.00 0.00 61 1022.9
20210623171218 69 228 0.0 10.0 0.00 0.00 0.00 58 1022.9
20210623170206 69 197 2.0 10.0 0.00 0.00 0.00 58 1023.2
20210623165156 69 83 4.0 15.0 0.00 0.00 0.00 58 1023.0
20210623164157 70 158 5.0 10.0 0.00 0.00 0.00 61 1023.1
20210623163147 70 259 2.0 13.0 0.00 0.00 0.00 58 1023.0
20210623162149 70 154 7.0 17.0 0.00 0.00 0.00 55 1023.0
20210623161141 69 145 0.0 13.0 0.00 0.00 0.00 56 1023.1
20210623160139 69 93 5.0 13.0 0.00 0.00 0.00 56 1023.2
20210623155133 69 357 5.0 13.0 0.00 0.00 0.00 64 1023.3
20210623154127 68 204 4.0 13.0 0.00 0.00 0.00 62 1023.3
20210623153113 68 159 6.0 15.0 0.00 0.00 0.00 65 1023.3
20210623152100 68 161 5.0 10.0 0.00 0.00 0.00 64 1023.4
20210623151100 68 171 7.0 10.0 0.00 0.00 0.00 65 1023.5
20210623150051 68 194 4.0 13.0 0.00 0.00 0.00 64 1023.6
20210623145042 68 213 2.0 13.0 0.00 0.00 0.00 63 1023.6
20210623144039 68 211 0.0 13.0 0.00 0.00 0.00 64 1023.7
20210623143023 68 199 2.0 13.0 0.00 0.00 0.00 64 1023.7
20210623142012 68 160 6.0 13.0 0.00 0.00 0.00 65 1023.8
20210623141007 68 149 0.0 13.0 0.00 0.00 0.00 65 1023.7
20210623135952 68 196 6.0 10.0 0.00 0.00 0.00 64 1023.8
20210623134944 67 149 9.0 13.0 0.00 0.00 0.00 63 1023.8
20210623132924 67 164 8.0 15.0 0.00 0.00 0.00 69 1024.0
20210623131913 68 148 5.0 13.0 0.00 0.00 0.00 68 1024.0
20210623130905 68 168 7.0 13.0 0.00 0.00 0.00 64 1024.0
20210623125854 67 102 6.0 13.0 0.00 0.00 0.00 66 1023.9
20210623124843 67 166 0.0 10.0 0.00 0.00 0.00 64 1024.0
20210623123836 67 154 6.0 10.0 0.00 0.00 0.00 65 1024.0
20210623122831 68 254 3.0 10.0 0.00 0.00 0.00 65 1023.8
20210623121816 69 118 5.0 10.0 0.00 0.00 0.00 62 1023.9
20210623120814 69 221 4.0 10.0 0.00 0.00 0.00 64 1023.9
20210623115832 69 219 1.0 10.0 0.00 0.00 0.00 60 1023.9
20210623114805 68 178 3.0 10.0 0.00 0.00 0.00 60 1023.9
20210623113806 67 223 0.0 10.0 0.00 0.00 0.00 62 1024.1
20210623112801 67 109 1.0 5.0 0.00 0.00 0.00 66 1024.0
20210623111753 67 198 1.0 8.0 0.00 0.00 0.00 67 1024.0
20210623110754 66 321 2.0 8.0 0.00 0.00 0.00 67 1023.9
20210623105742 65 193 1.0 10.0 0.00 0.00 0.00 66 1023.9
20210623104729 64 134 6.0 10.0 0.00 0.00 0.00 72 1023.8
20210623103727 65 123 4.0 10.0 0.00 0.00 0.00 71 1023.8
20210623102711 65 168 4.0 8.0 0.00 0.00 0.00 70 1024.0
20210623101658 66 156 6.0 10.0 0.00 0.00 0.00 71 1023.9
20210623100659 66 191 4.0 13.0 0.00 0.00 0.00 68 1023.9
20210623095650 66 8 4.0 8.0 0.00 0.00 0.00 66 1023.9
20210623094640 65 215 2.0 8.0 0.00 0.00 0.00 68 1023.8
20210623093630 65 98 2.0 10.0 0.00 0.00 0.00 67 1023.7
20210623092626 64 148 3.0 8.0 0.00 0.00 0.00 69 1023.8
20210623091623 64 165 1.0 8.0 0.00 0.00 0.00 70 1023.7
20210623090611 62 89 3.0 5.0 0.00 0.00 0.00 68 1023.7
20210623085604 61 124 0.0 5.0 0.00 0.00 0.00 71 1023.7
20210623084551 60 248 0.0 5.0 0.00 0.00 0.00 74 1023.8
20210623083541 59 326 2.0 8.0 0.00 0.00 0.00 79 1023.8
20210623082538 58 328 2.0 10.0 0.00 0.00 0.00 78 1023.6
20210623081536 58 347 4.0 10.0 0.00 0.00 0.00 80 1023.6
20210623080527 58 351 4.0 10.0 0.00 0.00 0.00 79 1023.4
20210623075518 57 350 5.0 10.0 0.00 0.00 0.00 79 1023.3
20210623074518 57 327 6.0 10.0 0.00 0.00 0.00 79 1023.2
20210623073454 57 338 4.0 8.0 0.00 0.00 0.00 79 1023.3
20210623072444 57 325 5.0 10.0 0.00 0.00 0.00 81 1023.2
20210623071448 57 331 4.0 8.0 0.00 0.00 0.00 79 1023.2
20210623070435 57 343 5.0 10.0 0.00 0.00 0.00 77 1023.1
20210623065430 57 343 6.0 13.0 0.00 0.00 0.00 76 1023.0
20210623064422 56 328 5.0 10.0 0.00 0.00 0.00 76 1023.0
20210623063408 57 349 4.0 8.0 0.00 0.00 0.00 82 1022.9
20210623062407 57 338 5.0 10.0 0.00 0.00 0.00 79 1023.1
20210623061416 57 331 4.0 8.0 0.00 0.00 0.00 76 1023.0
20210623060357 57 318 6.0 10.0 0.00 0.00 0.00 78 1023.0
20210623055347 57 350 4.0 8.0 0.00 0.00 0.00 77 1023.0
20210623054344 57 340 3.0 8.0 0.00 0.00 0.00 77 1023.0
20210623053333 57 339 4.0 8.0 0.00 0.00 0.00 79 1023.0
20210623052332 57 326 3.0 8.0 0.00 0.00 0.00 78 1023.2
20210623051327 58 346 5.0 10.0 0.00 0.00 0.00 78 1023.3
20210623050314 58 350 5.0 10.0 0.00 0.00 0.00 78 1023.4
20210623045305 58 321 4.0 8.0 0.00 0.00 0.00 81 1023.5
20210623044303 58 336 4.0 10.0 0.00 0.00 0.00 78 1023.4
20210623043302 58 341 5.0 8.0 0.00 0.00 0.00 78 1023.5
20210623042244 58 334 5.0 8.0 0.00 0.00 0.00 79 1023.4
20210623041242 58 354 4.0 8.0 0.00 0.00 0.00 78 1023.5
20210623040233 59 328 4.0 8.0 0.00 0.00 0.00 78 1023.4
20210623035228 58 317 2.0 8.0 0.00 0.00 0.00 76 1023.7
20210623034213 58 344 3.0 8.0 0.00 0.00 0.00 76 1023.9
20210623033206 58 315 6.0 10.0 0.00 0.00 0.00 77 1023.9
20210623032153 58 221 0.0 8.0 0.00 0.00 0.00 75 1023.8
20210623031154 58 342 4.0 10.0 0.00 0.00 0.00 78 1024.1
20210623030146 58 325 6.0 8.0 0.00 0.00 0.00 77 1024.0
20210623025136 58 334 6.0 10.0 0.00 0.00 0.00 75 1024.0
20210623024126 58 331 6.0 10.0 0.00 0.00 0.00 76 1024.3
20210623023127 58 335 5.0 10.0 0.00 0.00 0.00 81 1024.3
20210623022124 58 339 7.0 13.0 0.00 0.00 0.00 79 1024.3
20210623021117 59 353 5.0 10.0 0.00 0.00 0.00 80 1024.3
20210623020100 59 337 7.0 10.0 0.00 0.00 0.00 85 1024.5
20210623015048 59 339 6.0 8.0 0.00 0.00 0.00 87 1024.5
20210623014042 59 331 4.0 8.0 0.00 0.00 0.00 88 1024.6
20210623013040 59 329 4.0 8.0 0.00 0.00 0.00 89 1024.7
20210623012032 60 329 2.0 8.0 0.00 0.00 0.00 89 1024.7
20210623011027 60 330 3.0 8.0 0.00 0.00 0.00 89 1025.0
20210623010010 60 313 1.0 5.0 0.00 0.00 0.00 89 1025.0
20210623005008 60 314 2.0 5.0 0.00 0.00 0.00 89 1025.0
20210623003951 60 8 1.0 5.0 0.00 0.00 0.00 89 1025.2
20210623002941 61 313 0.0 2.0 0.00 0.00 0.00 88 1025.1
20210623001932 61 264 0.0 0.0 0.00 0.00 0.00 88 1025.3
20210623000924 61 218 0.0 0.0 0.00 0.00 0.00 87 1025.3
20210622235914 61 204 0.0 0.0 0.00 0.00 0.00 86 1025.4
20210622234906 61 222 0.0 2.0 0.00 0.00 0.00 85 1025.4
20210622233854 61 287 0.0 0.0 0.00 0.00 0.00 84 1025.5